Terug naar catalogus

DELTA 1 DEB

ActiefSSO
NORAD 9681·DEBRIS·🇺🇸 United States

Gelanceerd Jan 22, 1975 vanaf Vandenberg Space Force Base

Loading…

Volgende Passages (komende 24 uur)

TLE

VersSource: Space-Track

Epoch: Sep 14, 2026, 09:02 UTC

1 09681U 75004GC  26257.37683718  .00000115  00000-0  45410-4 0  9990
2 09681  97.9786 312.5360 0055013  13.2083 347.0534 14.43248787656655

Volg DELTA 1 DEB in realtime met AllMySat

Download on the App Store